Flag for Australia Weather past 2 weeks in Adelaide, South Australia, Australia

81 °F


Feels Like: 80 °F
Forecast: 60 / 81 °F
Wind: 7 mph from North

Location: Adelaide Airport

Current Time: Oct 9, 2015 at 11:09:05 AM

Latest Report: Oct 9, 2015 at 10:30 AM

Visibility: N/A

Pressure: 30.27 "Hg

Humidity: 30%

Dew point: 46 °F

Location of AdelaideLocation

Historic Weather in Adelaide — Graph


Adelaide temperature yesterday

Maximum temperature yesterday: 81 °F (at 1:30 PM)
Minimum temperature yesterday: 54 °F (at 2:00 AM)
Average temperature yesterday: 66 °F

Past Weeks' High & Low Weather Summary

High95 °F (Oct 5, 2:30 PM)93% (Sep 29, 6:00 AM)30.57 "Hg (Sep 29, 6:00 AM)
Low39 °F (Sep 29, 5:00 AM)4% (Oct 3, 3:00 PM)29.83 "Hg (Oct 6, 3:30 AM)
Average62 °F50%30.25 "Hg
* Reported Sep 24 8:30 AM — Oct 9 9:30 AM, Adelaide, Weather by CustomWeather, © 2015

Note: Actual official high and low records may vary slightly from our data, if they occured in-between our weather recording intervals... More about our weather records


Adelaide weather history for previous 24 hours

Time TempWeatherWind HumidityBarometerVisibility
9:30 AM
Fri, Oct 9
81 °FSunny.7 mph20%30.30 "Hg10 mi
9:00 AM77 °FSunny.5 mph30%30.30 "Hg10 mi
8:30 AM72 °FSunny.No wind41%30.30 "Hg10 mi
8:00 AM64 °FSunny.3 mph49%30.30 "Hg10 mi
7:30 AM61 °FSunny.6 mph55%30.27 "Hg10 mi
6:30 AM59 °FClear.7 mph59%30.27 "Hg10 mi
6:00 AM57 °FClear.3 mph63%30.27 "Hg10 mi
5:30 AM57 °FClear.6 mph63%30.24 "Hg10 mi
4:30 AM57 °FClear.6 mph63%30.24 "Hg10 mi
3:30 AM61 °FClear.7 mph55%30.24 "Hg10 mi
3:00 AM59 °FClear.7 mph63%30.27 "Hg10 mi
2:30 AM59 °FClear.1 mph72%30.27 "Hg10 mi
2:00 AM63 °FClear.1 mph68%30.27 "Hg10 mi
1:30 AM64 °FClear.7 mph68%30.30 "Hg10 mi
1:00 AM64 °FClear.7 mph56%30.30 "Hg10 mi
12:30 AM66 °FClear.1 mph37%30.30 "Hg10 mi
12:00 AM72 °FClear.7 mph29%30.27 "Hg10 mi
11:30 PM
Thu, Oct 8
73 °FClear.9 mph25%30.30 "Hg10 mi
10:30 PM72 °FClear.7 mph31%30.30 "Hg10 mi
10:00 PM73 °FClear.9 mph29%30.30 "Hg10 mi
9:30 PM73 °FClear.8 mph29%30.30 "Hg10 mi
9:00 PM70 °FClear.8 mph46%30.30 "Hg10 mi
8:30 PM68 °FClear.No wind53%30.30 "Hg10 mi
8:00 PM70 °FClear.No wind46%30.27 "Hg10 mi
7:30 PM70 °FSunny.5 mph46%30.27 "Hg10 mi
7:00 PM73 °FSunny.6 mph38%30.27 "Hg10 mi
6:30 PM75 °FSunny.7 mph31%30.27 "Hg10 mi
6:00 PM77 °FSunny.5 mph30%30.27 "Hg10 mi
5:30 PM77 °FSunny.7 mph28%30.27 "Hg10 mi
5:00 PM75 °FSunny.9 mph31%30.27 "Hg10 mi
4:30 PM73 °FSunny.10 mph38%30.27 "Hg10 mi
4:00 PM72 °FSunny.10 mph44%30.30 "Hg10 mi
3:30 PM72 °FSunny.9 mph41%30.30 "Hg10 mi
3:00 PM68 °FSunny.12 mph53%30.30 "Hg10 mi
2:30 PM73 °FPassing clouds.10 mph41%30.30 "HgN/A
2:00 PM81 °FSunny.15 mph18%30.30 "Hg10 mi
1:30 PM81 °FSunny.14 mph21%30.30 "Hg10 mi
1:00 PM75 °FSunny.12 mph39%30.36 "Hg10 mi
12:30 PM77 °FPassing clouds.9 mph26%30.39 "HgN/A
11:30 AM75 °FSunny.14 mph22%30.42 "Hg10 mi
Weather by CustomWeather, © 2015

See weather overviewHow to use our weather pages